Flag for Germany Weather past 2 weeks in Riesa, Saxony, Germany

Now
76 °F

Partly sunny.


Feels Like: 77 °F
Forecast: 66 / 82 °F
Wind: 5 mph from Southeast

Location: Dresden-Klotzsche

Current Time: Aug 2, 2014 at 11:33:20 AM

Latest Report: Aug 2, 2014 at 11:00 AM


Visibility: 16 mi

Pressure: 29.81 "Hg

Humidity: 66%

Dew point: 64 °F

Location of RiesaLocation

Historic Weather in Riesa — Graph

°F

Riesa temperature yesterday

Maximum temperature yesterday: 76 °F (at 4:00 PM)
Minimum temperature yesterday: 56 °F (at 6:00 AM)
Average temperature yesterday: 67 °F

Past Weeks' High & Low Weather Summary

 TemperatureHumidityPressure
High90 °F (Jul 20, 4:00 PM)98% (Jul 25, 6:00 AM)30.13 "Hg (Jul 25, 6:00 AM)
Low56 °F (Aug 1, 6:00 AM)25% (Jul 20, 4:00 PM)29.69 "Hg (Jul 29, 7:00 PM)
Average71 °F69%29.90 "Hg
* Reported Jul 18 10:00 AM — Aug 2 10:00 AM, Riesa, Weather by CustomWeather, © 2014

Note: Actual official high and low records may vary slightly from our data, if they occured in-between our weather recording intervals... More about our weather records

Advertising

Riesa weather history for previous 24 hours

 ConditionsComfort  
Time TempWeatherWind HumidityBarometerVisibility
10:00 AM
Aug 2
74 °FScattered clouds.5 mph71%29.82 "Hg14 mi
9:00 AM72 °FPassing clouds.3 mph75%29.83 "Hg12 mi
8:00 AM69 °FPartly sunny.5 mph82%29.84 "Hg12 mi
7:00 AM67 °FScattered clouds.3 mph83%29.85 "Hg9 mi
6:00 AM66 °FPartly sunny.2 mph84%29.85 "Hg12 mi
5:00 AM66 °FOvercast.5 mph83%29.85 "Hg12 mi
4:00 AM67 °FOvercast.5 mph81%29.85 "Hg16 mi
3:00 AM67 °FOvercast.3 mph81%29.86 "Hg12 mi
2:00 AM67 °FOvercast.3 mph80%29.87 "Hg16 mi
1:00 AM68 °FOvercast.2 mph79%29.88 "Hg16 mi
12:00 AM68 °FOvercast.3 mph77%29.88 "Hg12 mi
10:00 PM
Aug 1
70 °FOvercast.3 mph74%29.89 "Hg16 mi
9:00 PM71 °FOvercast.5 mph71%29.89 "Hg19 mi
8:00 PM72 °FPartly sunny.6 mph67%29.88 "Hg19 mi
7:00 PM74 °FPartly sunny.5 mph61%29.88 "Hg19 mi
6:00 PM75 °FOvercast.5 mph57%29.87 "Hg25 mi
5:00 PM75 °FOvercast.5 mph56%29.88 "Hg25 mi
4:00 PM76 °FOvercast.6 mph51%29.89 "Hg28 mi
3:00 PM76 °FOvercast.6 mph50%29.90 "Hg28 mi
2:00 PM74 °FOvercast.5 mph51%29.91 "Hg28 mi
1:00 PM74 °FPartly sunny.3 mph51%29.92 "Hg28 mi
12:00 PM73 °FPartly sunny.3 mph51%29.93 "Hg28 mi
11:00 AM72 °FScattered clouds.2 mph56%29.95 "Hg25 mi
Weather by CustomWeather, © 2014

See weather overviewHow to use our weather pages